Theta_e
326 326 325 325 326 325 325 325 325 326 325 324 322 321 322 322 322 320 322 320 320 319 320 320 320 320 319 319 319 318 317 316 315 315 314 313 313 312 312 311 310 310 310 310 308 308 308 307 308 308 308 308 309 309 309 310 311 312 312 311 311 310 309 309 307 306 308 310 310 310 311 310 309 310 309 310 310 309 310 310 310 311 310 311 312
325 326 326 325 325 325 325 325 325 326 325 324 325 324 324 325 324 325 322 321 320 321 321 321 320 321 319 319 319 318 318 317 316 315 314 313 313 312 313 312 311 311 312 310 311 310 310 309 309 309 308 308 308 307 308 308 308 309 309 310 310 309 310 310 308 307 305 308 309 310 309 308 308 309 310 311 310 309 308 308 308 309 309 311 311
326 324 323 323 324 324 324 324 324 324 324 323 325 325 325 325 326 326 324 325 323 322 323 323 322 321 320 321 319 318 318 316 316 315 315 314 313 313 314 313 312 312 311 311 311 311 310 310 310 310 311 309 309 309 310 309 308 308 308 309 309 309 308 309 309 306 305 306 308 308 310 308 308 310 309 310 310 308 307 307 307 307 308 310 311
324 323 322 322 322 322 322 322 323 324 324 322 322 323 325 325 326 326 327 325 324 323 323 323 323 321 320 320 320 319 319 318 317 315 314 314 314 314 315 315 314 314 313 312 312 312 311 310 310 311 311 310 310 309 310 310 310 310 309 309 309 309 309 309 309 309 308 306 308 307 309 310 311 309 308 308 308 308 308 308 308 307 307 308 309
323 323 323 322 321 321 321 322 322 322 322 322 323 323 323 324 324 326 325 325 326 326 325 323 322 322 321 321 321 320 320 320 319 317 316 315 314 314 314 314 315 315 315 315 316 315 313 312 312 312 312 310 310 310 310 310 310 310 309 310 309 309 309 310 310 310 308 307 307 309 309 308 309 310 309 307 308 307 307 307 307 308 309 309 309
324 324 324 325 324 324 323 323 323 322 323 322 322 322 323 323 323 323 325 324 324 325 325 326 325 323 322 322 323 323 322 321 320 320 319 319 318 317 316 315 314 314 314 315 315 315 315 315 316 315 313 312 312 312 313 312 312 312 312 312 311 310 309 309 309 308 307 306 308 309 309 307 307 308 309 308 307 307 307 308 308 308 309 310 310
324 323 323 323 322 322 322 323 323 323 323 323 321 321 322 322 323 324 325 324 324 323 322 323 324 325 325 326 326 326 326 324 323 323 322 322 321 320 319 319 318 318 318 317 316 316 316 316 315 315 315 314 313 313 314 315 315 315 314 313 313 312 311 310 309 307 305 305 306 307 307 309 308 307 309 307 307 306 306 307 309 311 311 310 309
321 320 320 319 320 321 322 322 322 321 321 321 320 320 321 322 322 322 323 322 322 322 322 322 322 323 323 323 324 325 324 322 320 320 321 322 322 321 321 320 320 320 320 320 320 319 319 318 318 317 317 317 316 316 317 317 317 315 315 313 312 312 311 311 310 309 308 306 306 306 308 308 310 308 307 306 305 306 306 306 307 309 310 311 311
321 321 321 321 321 322 322 322 321 322 322 321 321 320 321 321 321 322 322 322 322 322 322 322 321 321 321 321 321 320 318 315 313 312 314 316 318 319 320 320 321 319 319 319 320 320 321 321 321 321 321 321 322 322 322 321 319 316 316 315 314 313 312 312 311 311 309 308 307 308 308 309 310 309 309 308 306 309 312 310 307 309 310 310 312
322 322 322 322 322 323 323 323 323 323 322 321 321 321 321 321 321 321 321 321 321 321 321 320 319 319 318 316 315 313 311 309 307 302 303 307 312 315 316 316 317 317 317 318 318 319 319 320 320 321 322 322 320 316 312 311 314 318 318 317 315 314 313 313 312 311 310 310 310 311 311 312 312 312 310 311 311 311 310 309 307 310 310 310 313
323 322 322 323 323 323 322 322 323 322 322 322 322 322 321 321 321 320 319 320 319 319 318 315 314 314 314 313 311 310 307 305 300 296 296 297 306 312 314 315 316 316 316 317 317 318 319 320 320 321 321 320 319 313 310 309 308 308 308 309 314 316 315 313 314 314 313 312 313 312 311 311 312 313 312 313 313 313 312 312 312 311 310 309 308
322 323 324 324 324 323 323 323 322 322 322 321 320 320 320 319 318 318 318 317 317 316 314 312 312 311 310 308 307 307 305 304 296 297 296 295 298 306 312 314 315 316 316 317 317 318 319 319 319 320 319 314 312 309 310 308 305 305 306 307 307 306 307 312 314 313 313 312 311 312 312 311 312 313 314 313 312 312 313 313 313 312 311 310 310
319 320 321 321 321 321 321 321 321 320 319 319 319 318 317 316 316 316 316 316 314 312 311 310 309 308 307 306 305 304 304 302 296 298 297 296 296 301 309 314 314 316 316 316 315 314 314 315 315 315 312 311 307 304 305 306 307 308 309 310 311 308 300 300 301 310 312 310 310 310 311 310 309 311 310 307 308 308 310 310 311 311 311 310 311
316 317 319 320 320 319 318 318 317 317 318 317 317 315 314 312 313 315 315 313 311 310 310 309 307 306 306 305 304 305 304 304 296 297 297 296 296 299 311 314 314 312 311 310 309 308 307 308 309 308 307 305 304 302 303 303 305 308 310 312 312 311 307 302 303 304 307 308 309 308 308 305 306 305 306 305 305 305 306 306 308 308 308 308 311
312 313 314 316 317 316 315 314 313 313 313 313 311 310 309 309 309 310 309 309 308 307 307 306 305 305 303 303 304 304 305 298 296 297 297 297 300 306 314 313 312 310 309 309 308 306 304 304 304 303 303 302 302 302 303 304 306 308 310 310 309 308 307 307 307 307 307 308 307 306 304 304 303 303 303 303 304 306 307 307 308 308 309 311 310
309 310 310 312 313 313 313 312 311 311 310 309 308 307 306 306 305 307 306 305 305 305 305 305 303 303 303 302 303 302 302 296 295 296 297 297 302 312 312 311 309 308 307 306 306 306 304 302 301 301 301 301 301 296 299 307 307 308 310 310 309 308 306 304 298 299 303 303 304 303 303 301 299 301 300 300 303 304 306 308 309 307 307 307 304
306 307 307 308 311 312 312 312 311 310 310 309 308 307 306 305 305 305 304 303 303 303 303 303 303 302 303 303 301 301 302 299 294 295 296 297 304 310 310 308 306 304 304 304 304 305 306 303 301 301 301 300 297 293 294 307 307 308 308 308 307 307 306 306 299 296 295 294 294 295 294 295 295 295 295 295 299 303 306 305 302 303 304 303 302
305 306 306 306 307 309 312 312 310 309 308 308 306 306 306 306 306 305 303 302 302 302 303 303 303 303 303 303 305 300 300 302 295 294 294 297 303 305 305 304 302 302 302 302 302 303 305 306 303 300 299 299 294 293 293 304 305 305 306 304 304 303 303 303 303 302 298 297 296 295 295 295 296 297 297 296 296 301 302 301 301 302 301 300 301
303 304 304 305 306 306 308 310 309 308 307 305 304 305 306 306 305 304 303 303 302 301 305 301 301 301 301 303 307 300 298 301 297 293 295 297 301 302 302 301 302 300 300 302 301 300 301 303 302 299 300 297 292 293 293 301 303 302 303 303 302 301 301 302 300 299 299 301 301 301 301 300 300 300 300 298 298 300 300 300 301 302 300 298 297
302 302 303 304 305 306 307 311 310 309 308 307 305 305 305 306 302 303 301 301 302 300 302 299 298 300 300 299 300 300 300 300 301 293 295 296 299 301 300 302 301 300 300 302 300 301 300 301 301 293 290 291 292 292 293 293 300 301 301 300 299 300 302 301 302 299 297 298 298 297 297 297 297 298 298 299 300 300 299 300 300 300 300 299 298
303 302 302 302 303 304 303 304 306 306 306 306 307 309 307 305 303 302 304 303 304 304 303 296 297 297 298 297 298 300 303 304 301 294 291 294 297 299 300 300 298 297 298 301 299 300 302 302 300 299 288 288 291 292 293 293 296 300 299 300 300 297 297 299 298 298 297 297 296 296 295 295 296 297 298 298 299 299 299 298 299 300 300 300 299
303 303 303 303 304 302 303 304 305 305 306 306 305 306 305 306 305 304 302 303 304 303 301 302 300 301 300 299 301 302 301 305 302 298 292 292 293 296 301 300 298 298 298 300 300 300 300 300 301 300 290 286 286 290 291 292 293 300 298 292 291 290 297 298 296 296 296 295 295 296 295 297 299 299 298 298 298 298 298 297 296 297 299 300 301
302 303 302 301 303 304 304 303 304 305 305 304 302 303 302 303 304 306 304 304 303 303 303 302 302 302 302 303 302 302 302 302 301 299 294 289 289 291 292 296 292 300 300 302 301 301 299 299 299 300 292 289 288 289 289 289 295 299 293 291 291 290 294 297 295 295 295 294 295 298 295 295 297 299 299 299 298 297 297 296 295 294 296 298 299
299 300 300 298 298 299 302 303 302 302 303 301 302 301 299 300 301 302 302 304 304 304 304 302 301 302 303 303 303 303 302 301 299 295 296 291 288 288 290 290 291 298 299 301 301 300 300 299 298 291 289 288 288 288 289 289 293 292 290 290 290 292 296 296 295 295 294 295 296 297 297 296 294 296 297 297 296 295 295 295 295 293 293 294 295
299 297 297 297 297 297 298 298 300 300 301 301 301 301 300 299 300 298 300 299 301 302 303 301 302 303 302 303 303 303 302 300 300 299 294 293 291 290 290 288 288 287 295 301 300 300 296 293 290 289 288 289 288 289 290 291 289 289 289 290 295 296 295 295 295 294 298 298 297 295 294 295 296 296 295 295 295 296 295 295 295 294 295 295 295
299 298 297 297 296 296 296 297 298 298 299 298 300 299 298 300 300 297 297 298 298 298 300 299 299 299 300 301 301 303 302 301 301 301 301 301 297 293 290 289 291 291 293 296 294 292 291 289 289 289 291 292 294 296 297 298 293 291 289 290 296 296 295 295 294 295 298 298 297 299 300 298 295 295 295 295 294 296 294 296 298 303 297 298 302
302 299 296 295 295 295 295 296 301 299 297 297 298 301 301 298 298 300 299 298 298 298 298 299 300 299 299 299 300 300 301 301 301 301 300 299 300 302 300 296 294 292 294 297 297 297 295 295 295 294 294 294 294 295 295 295 295 296 297 297 297 297 296 297 299 299 299 298 296 297 297 296 295 296 297 296 296 297 294 294 295 297 296 298 300
298 297 296 295 296 296 296 303 304 296 296 296 297 298 298 299 298 298 298 297 296 296 297 298 298 299 298 298 298 298 298 299 300 301 302 301 302 301 299 299 300 300 299 299 297 295 296 294 293 295 296 297 296 296 297 296 295 295 297 297 299 298 297 297 298 297 298 299 298 295 295 297 299 299 298 298 298 299 294 293 295 298 296 298 302
300 298 295 295 296 298 298 297 297 296 295 296 296 297 298 300 299 299 298 297 297 298 298 297 298 298 299 299 299 299 299 299 301 298 301 297 300 301 299 299 300 299 298 293 294 295 294 294 295 296 296 295 296 297 296 297 297 297 297 298 298 298 297 297 298 300 300 297 297 297 297 297 298 299 298 300 301 300 296 295 294 296 296 297 301
298 297 297 297 298 299 299 298 297 297 297 296 297 298 297 297 298 300 301 300 296 294 294 298 299 299 298 298 299 299 299 301 298 296 295 294 294 294 295 295 294 296 292 287 291 293 293 294 294 294 295 295 296 296 296 296 296 296 296 294 296 297 297 297 299 300 298 297 297 297 298 298 300 300 299 299 301 300 295 292 296 294 298 300 300
300 298 299 299 297 299 298 298 298 297 297 296 297 296 297 298 293 292 295 299 295 294 292 292 293 293 298 299 298 295 295 295 295 295 293 291 291 291 291 291 290 289 288 290 292 293 293 293 294 294 294 294 295 295 295 295 295 296 297 296 296 296 295 297 298 297 298 298 297 298 297 297 298 298 298 298 298 299 299 295 293 293 296 298 299
298 298 298 298 297 297 297 297 297 297 297 297 297 297 296 296 298 296 293 292 292 293 292 292 292 292 292 294 299 299 295 294 293 294 294 293 291 287 287 287 287 289 288 289 291 291 292 293 293 294 295 295 294 293 294 295 295 296 297 298 299 296 296 297 297 298 297 295 296 294 296 295 294 294 294 294 293 295 295 295 293 293 293 294 297
297 297 297 297 297 297 297 297 297 297 297 297 297 297 296 295 295 296 298 294 293 292 292 292 292 292 292 291 291 292 294 294 294 293 293 293 290 289 288 288 290 290 288 290 291 292 293 292 293 294 294 294 295 294 294 294 294 294 295 296 297 297 298 298 295 296 294 293 293 292 293 293 292 291 289 289 289 291 291 291 292 291 291 293 294
296 296 297 298 297 297 297 297 296 296 296 296 296 296 296 296 295 295 294 294 296 296 294 293 292 292 292 291 290 290 291 291 291 292 292 292 291 291 289 291 291 291 291 292 292 292 293 293 293 294 294 294 293 293 293 293 293 293 293 294 295 295 294 292 292 294 293 294 294 293 293 292 291 292 291 291 290 289 289 290 291 291 292 291 292
298 298 299 298 298 297 297 297 297 297 296 296 296 296 296 296 295 294 294 294 294 294 295 297 296 294 295 293 292 292 292 292 292 292 292 292 292 291 291 292 292 291 291 291 291 292 292 292 293 294 295 294 294 293 293 293 294 294 293 293 293 292 292 292 292 294 295 295 294 294 293 291 291 290 290 289 289 290 290 290 291 290 290 290 290
297 297 297 297 297 297 297 297 296 296 296 297 297 296 295 295 294 294 294 293 293 293 294 296 296 294 293 293 293 292 292 292 292 292 292 292 292 291 291 291 291 292 291 291 290 290 291 292 292 293 293 293 292 292 293 293 294 294 294 293 292 292 293 293 292 292 292 293 292 292 291 291 291 290 290 290 290 290 290 290 290 290 289 290 290
296 296 296 296 296 296 297 297 297 296 293 294 296 296 295 295 294 294 294 295 294 294 295 295 295 296 294 296 298 294 293 293 294 293 292 292 292 291 292 292 293 293 291 291 291 290 290 291 291 292 291 292 292 292 292 292 293 294 294 293 293 293 293 293 292 290 291 291 291 291 291 291 291 290 290 289 289 289 289 289 290 288 288 287 286
296 296 295 295 295 296 296 296 295 292 295 295 296 296 295 296 296 296 295 296 296 295 296 296 296 295 294 296 301 299 296 293 293 293 293 292 289 291 292 291 292 292 292 292 292 291 291 292 291 291 291 292 292 291 291 292 293 293 292 292 292 292 291 290 289 291 290 290 290 290 289 290 290 289 287 288 287 287 288 287 289 289 289 289 290
295 292 290 289 291 295 295 294 295 295 295 295 295 295 294 294 295 295 295 296 295 295 295 295 295 295 295 296 297 299 296 296 296 296 296 297 296 294 293 292 292 292 292 293 293 291 292 292 291 292 292 292 292 291 291 292 292 292 291 291 291 291 291 291 291 290 289 290 289 289 289 288 287 287 286 287 286 287 287 287 287 288 289 289 289
294 294 292 290 292 293 293 293 293 294 293 293 294 294 294 294 294 294 294 294 294 294 294 294 294 295 296 296 297 296 295 295 295 295 296 295 295 295 294 293 293 292 292 292 293 294 293 293 292 293 293 292 293 291 291 292 292 291 290 290 291 291 290 290 289 289 289 289 289 289 289 288 287 286 287 286 286 286 286 286 286 287 287 288 288
294 294 290 290 290 292 292 293 292 292 293 293 293 293 292 292 292 292 293 293 293 293 293 294 294 296 295 294 293 293 294 294 295 295 294 294 294 294 294 294 294 294 293 293 292 293 294 294 293 293 293 292 292 291 290 290 291 291 291 289 290 289 290 290 289 289 289 288 289 288 287 287 286 286 287 286 286 286 286 286 286 286 286 286 287
293 292 292 292 292 292 291 291 291 291 291 291 291 291 291 290 291 291 291 291 291 291 291 292 293 293 292 292 291 291 292 294 294 293 293 293 293 293 294 294 294 294 295 294 295 293 294 293 293 292 291 290 290 289 289 290 291 290 290 289 289 289 288 289 289 289 289 288 288 288 287 286 286 286 286 287 286 286 286 286 286 286 286 286 285
292 292 291 292 291 290 290 290 290 290 290 290 290 287 289 290 290 290 289 289 289 289 289 289 289 290 289 288 288 288 292 292 289 292 292 292 292 292 293 293 293 294 296 295 294 294 292 292 291 290 291 291 291 290 290 291 290 290 290 290 290 289 289 289 288 288 288 287 287 286 287 287 286 286 286 286 286 286 286 286 285 286 285 286 285
291 291 290 290 290 289 289 289 289 289 289 288 288 289 289 289 289 289 289 289 289 289 290 290 289 289 289 289 289 289 290 289 289 289 289 289 290 291 292 293 292 293 294 294 293 292 291 290 290 289 289 289 290 291 290 291 290 290 290 291 289 288 289 288 288 288 288 288 287 287 287 286 285 286 285 285 287 286 286 286 285 285 285 285 285
290 290 290 289 289 289 289 289 288 289 288 288 289 289 288 289 289 289 289 289 289 289 290 290 290 290 289 289 289 289 289 290 289 289 290 291 291 292 292 292 292 291 291 291 291 291 291 290 290 289 290 289 289 290 290 290 290 290 290 291 291 289 289 289 289 289 289 288 287 286 286 286 287 286 286 286 286 286 285 285 285 283 284 285 285
290 289 289 289 289 288 288 289 288 289 289 288 288 288 289 289 289 288 288 289 289 289 289 290 290 289 289 289 290 289 289 290 290 290 290 291 291 291 291 291 291 291 292 292 292 292 291 291 291 290 289 290 291 290 290 290 290 290 290 291 291 292 291 290 289 288 288 289 288 288 287 286 287 286 285 286 286 286 286 286 285 285 285 284 284
289 289 289 289 289 288 288 288 288 288 288 288 288 288 288 288 288 288 288 288 288 288 289 289 290 289 289 289 289 290 290 290 290 290 290 291 291 291 291 291 290 290 290 291 291 291 291 290 290 289 289 289 290 290 290 290 289 290 290 290 290 290 290 290 289 289 289 289 289 288 288 287 286 285 284 284 285 285 285 285 285 285 285 284 284
289 289 289 288 288 288 288 288 288 286 288 287 287 288 287 288 288 288 288 288 288 288 289 289 289 289 289 289 289 290 290 290 291 290 290 290 291 291 291 291 290 290 290 290 290 289 290 290 291 290 289 289 289 289 290 289 289 288 288 288 289 289 287 284 289 289 289 288 288 288 288 288 287 286 285 286 286 285 284 284 283 284 284 283 283
289 288 288 288 287 288 288 288 287 287 287 287 287 287 287 287 287 287 288 288 288 288 288 288 288 289 289 289 289 289 290 290 290 290 289 289 289 289 289 289 289 289 288 288 287 287 288 288 288 288 288 288 287 287 287 286 286 287 287 287 285 280 280 280 284 287 284 287 287 287 288 288 287 286 285 285 285 285 285 285 284 283 283 282 282
289 288 287 287 287 287 287 288 288 287 287 286 286 286 286 286 286 286 286 286 286 286 286 286 286 286 287 287 287 287 287 288 288 288 288 288 288 288 288 287 287 287 287 286 286 286 285 285 285 284 284 284 284 284 284 284 284 284 284 283 280 280 280 279 279 279 284 288 287 288 287 287 287 286 286 286 286 285 285 284 284 282 283 283 283
287 288 287 286 287 287 287 287 286 286 286 285 285 285 285 285 285 285 284 284 284 284 284 284 284 284 284 285 285 285 285 285 285 285 285 285 285 285 285 285 285 285 284 284 284 284 283 283 283 283 283 282 282 283 282 282 281 280 278 278 278 278 278 278 282 278 278 282 288 287 287 286 286 286 285 285 285 286 284 283 283 283 283 283 282
Wind_Speed
5 5 4 5 6 7 7 6 8 5 5 7 5 1 1 3 5 6 4 5 5 5 6 5 4 3 5 5 6 5 5 5 5 5 5 6 5 5 4 4 5 5 4 5 4 5 5 6 6 6 4 5 5 5 5 5 4 5 4 5 6 5 6 6 7 10 7 5 6 6 4 3 5 6 7 7 7 6 5 6 7 7 6 6 7
3 3 3 3 4 5 6 6 4 4 5 3 3 3 4 4 5 4 4 6 4 5 3 3 4 3 6 5 6 6 5 6 5 5 5 6 7 5 5 5 5 5 4 6 4 4 5 6 7 6 6 7 6 6 6 5 6 5 5 6 7 7 7 6 8 6 10 4 6 3 4 4 6 3 6 7 7 5 7 7 5 6 6 6 6
2 2 3 4 5 5 5 4 4 5 4 3 4 4 4 5 5 4 5 4 3 4 4 3 4 4 6 5 5 5 5 6 5 5 6 6 6 4 3 4 5 5 5 6 7 4 5 6 7 6 3 5 7 7 5 6 5 6 5 5 6 6 6 7 5 7 9 9 4 6 5 3 6 6 5 6 6 4 5 7 7 5 5 7 7
4 4 3 3 3 4 3 2 4 5 5 5 6 5 5 6 5 6 5 3 3 2 4 4 4 5 4 3 4 5 5 4 5 5 6 5 5 5 6 5 5 6 7 7 7 5 6 6 7 5 3 5 7 6 5 5 5 6 6 5 6 7 4 5 7 7 6 8 4 4 5 6 7 5 4 4 6 6 6 7 5 6 7 6 7
3 2 3 2 1 1 2 2 3 3 4 3 5 4 5 4 4 4 3 2 3 2 2 2 3 3 4 5 4 4 4 4 3 3 4 4 4 6 7 7 8 8 9 8 7 9 8 7 7 5 5 7 7 6 5 6 4 4 6 6 7 5 4 6 7 6 6 7 7 5 5 5 5 7 4 5 5 6 6 6 7 7 7 7 6
2 3 2 1 1 3 3 3 3 3 2 2 3 4 4 4 4 3 3 1 1 1 1 2 3 4 4 4 4 3 2 2 3 2 2 3 4 4 5 5 6 6 7 7 8 9 9 9 8 6 6 7 8 7 5 6 6 6 8 9 5 6 7 6 6 6 7 8 8 8 4 5 5 6 6 3 5 6 6 5 5 6 7 7 6
3 2 1 0 1 2 2 2 2 2 3 3 2 2 1 0 1 1 2 2 2 2 1 2 2 3 2 2 2 2 3 4 3 3 2 1 2 3 4 5 6 6 6 6 7 7 8 7 7 7 7 7 8 8 7 7 6 8 8 8 5 6 7 6 4 6 7 8 6 7 6 4 4 8 6 3 4 4 6 8 8 6 5 6 7
3 3 2 2 2 2 1 2 2 2 2 2 1 1 2 2 2 2 3 3 2 2 2 4 4 3 2 1 0 1 3 4 3 2 1 3 3 4 4 4 4 4 3 3 4 5 6 5 6 6 7 7 7 6 5 6 5 7 7 5 6 6 6 5 5 5 6 5 6 6 4 5 4 6 6 4 5 5 5 6 7 9 10 4 5
5 5 5 6 6 6 6 5 5 6 5 4 4 4 4 4 4 5 5 5 5 5 6 6 7 6 5 5 5 5 6 6 5 5 4 4 3 4 4 4 4 3 2 2 2 3 2 3 4 5 5 6 7 6 5 6 6 7 6 5 6 6 6 5 5 4 5 5 6 5 6 7 7 7 6 5 7 8 5 4 7 7 8 10 9
5 6 7 6 5 6 7 6 6 6 6 7 6 6 6 6 6 6 6 7 7 7 8 8 7 6 6 6 5 5 5 4 8 11 9 5 5 3 3 3 3 3 3 4 3 2 3 3 3 5 5 5 6 4 2 3 4 5 5 4 4 4 5 4 4 4 4 5 7 7 7 7 7 6 6 7 6 5 6 6 9 8 7 10 8
6 6 7 6 5 5 6 7 6 7 7 7 6 6 7 6 7 7 7 8 8 8 7 7 6 5 5 5 5 5 5 7 12 8 8 8 5 3 3 3 3 3 3 3 3 4 3 2 2 3 4 4 5 7 7 8 8 7 5 3 3 4 5 5 6 4 5 6 6 6 7 9 9 7 7 8 6 6 6 6 6 6 6 7 10
7 7 7 6 6 7 7 8 8 8 8 8 8 8 7 8 8 7 7 7 6 6 7 6 5 5 5 6 6 6 5 11 7 6 3 4 4 2 2 3 3 2 2 2 2 2 3 4 4 4 5 8 5 5 6 8 9 8 7 5 3 2 4 4 5 5 5 6 5 6 6 6 6 6 6 6 6 6 6 6 7 8 8 8 6
8 8 7 8 8 8 8 8 9 9 9 9 8 8 8 8 7 7 7 6 6 7 6 6 6 6 6 6 6 6 5 10 8 8 7 4 3 2 2 2 3 4 4 6 6 6 5 5 4 5 5 10 8 7 6 6 7 7 7 5 5 8 6 1 5 6 4 4 4 4 4 5 6 4 6 7 6 7 6 6 6 6 7 8 6
8 7 8 9 8 8 8 8 9 8 8 7 7 7 7 7 6 5 5 5 6 5 5 6 5 5 5 5 6 6 6 10 10 11 11 10 7 3 3 4 6 6 6 6 5 5 5 5 4 5 6 7 7 8 8 6 6 6 5 5 6 6 7 8 8 4 1 2 2 3 4 3 2 4 5 5 5 5 6 6 6 6 6 7 7
8 8 8 7 7 6 7 7 7 6 5 5 5 6 5 6 6 5 5 5 5 6 5 6 4 4 4 4 4 6 6 10 11 12 12 12 11 5 6 5 5 6 7 6 6 7 6 5 5 5 6 7 8 9 6 5 5 5 5 6 6 5 6 6 6 5 5 5 4 4 3 3 3 4 5 5 4 5 5 6 6 6 5 6 2
6 6 7 6 6 5 6 6 6 5 6 6 7 7 7 7 6 5 5 5 5 5 5 5 6 6 5 6 6 7 6 10 10 11 11 12 10 6 5 6 6 6 6 7 7 6 6 6 6 6 7 7 11 12 10 6 6 6 6 5 5 4 5 5 6 7 6 4 4 3 3 3 4 4 6 6 5 5 4 2 3 5 4 3 4
5 5 5 5 4 4 5 6 6 6 6 7 7 7 7 7 6 4 7 6 6 6 5 5 5 6 7 7 7 6 6 8 9 8 9 10 7 5 5 5 5 7 7 6 6 7 7 7 6 6 6 7 11 12 13 8 6 5 5 5 4 4 3 3 5 6 5 6 6 6 6 7 7 6 7 9 8 6 3 5 6 5 4 4 4
4 5 5 5 4 4 5 6 6 5 6 6 5 4 4 4 5 3 5 5 6 4 4 5 5 5 6 6 5 5 5 6 8 7 7 8 6 4 3 4 4 4 4 4 4 5 7 11 8 6 6 6 8 10 12 8 6 6 6 5 5 4 4 5 4 4 6 5 7 5 5 6 6 5 6 8 8 7 6 6 4 3 4 3 3
5 5 4 4 4 4 4 4 4 5 5 3 3 4 3 3 2 3 4 4 3 3 4 4 4 4 4 4 5 5 5 5 7 7 6 6 6 5 4 4 5 4 3 3 2 2 2 5 7 5 4 3 4 6 8 7 5 5 4 4 3 4 4 5 5 5 5 4 4 5 3 6 5 4 4 5 5 6 5 3 3 3 4 2 1
4 3 4 5 5 5 4 2 2 3 3 2 1 1 0 2 3 3 3 2 2 2 2 2 1 2 3 3 3 3 4 4 5 7 5 4 5 5 3 5 4 3 2 2 3 3 2 1 2 3 1 1 2 3 4 5 4 3 2 2 3 3 4 5 4 3 2 2 2 2 3 3 3 3 3 4 4 4 3 3 3 3 3 2 2
2 3 3 4 5 4 4 4 4 5 4 2 1 0 1 1 1 1 1 2 1 1 1 2 3 4 4 4 4 4 2 4 4 5 6 5 1 4 3 4 3 3 2 2 1 3 4 3 1 1 2 2 2 2 2 2 2 2 1 1 1 4 5 4 4 5 3 3 2 2 2 3 2 2 2 3 3 3 2 2 1 1 2 2 2
1 4 5 4 4 4 3 3 3 2 2 4 5 5 2 2 1 2 1 1 2 4 4 4 4 5 5 5 5 5 4 3 3 3 4 6 7 3 3 3 4 4 2 1 1 1 1 2 3 3 2 3 4 3 3 4 5 3 2 5 4 3 2 2 3 3 3 3 3 2 2 3 3 3 2 2 3 3 3 2 1 1 2 2 2
4 4 4 5 4 4 3 1 1 2 2 2 2 4 4 4 3 2 3 4 4 5 5 5 5 6 6 6 5 6 6 4 3 3 2 3 5 6 6 3 4 3 2 2 2 3 3 4 4 3 4 4 4 5 5 6 5 4 6 7 5 4 3 1 1 2 2 3 3 4 3 2 3 5 5 5 3 3 3 3 3 2 2 3 3
4 5 4 4 4 4 3 3 1 1 2 1 1 2 4 4 3 2 3 4 5 6 6 5 5 6 7 7 6 6 6 5 4 5 5 5 5 5 5 5 4 4 3 5 4 4 5 5 2 3 4 5 5 5 5 5 5 6 6 6 6 5 2 1 1 1 2 3 3 4 4 3 2 3 4 4 5 5 5 4 3 2 2 2 3
3 3 3 3 3 4 3 3 2 2 2 1 1 2 2 1 3 3 1 3 4 5 6 5 5 6 6 7 7 7 6 5 6 6 7 7 7 7 7 6 6 3 4 5 4 5 4 5 5 6 6 7 8 7 7 9 11 9 8 8 6 3 3 2 2 1 3 4 3 4 5 3 3 4 4 6 7 6 5 4 3 2 1 2 2
2 2 2 2 2 3 4 4 2 1 3 3 3 3 3 2 3 4 3 4 3 4 6 4 5 5 6 7 7 7 7 6 6 6 4 6 6 8 8 8 7 7 8 8 9 9 9 8 9 10 9 8 5 5 5 6 7 9 8 7 5 4 5 4 3 3 5 5 3 4 4 3 3 4 5 4 4 5 4 4 5 2 3 3 1
1 1 1 2 3 2 3 3 5 5 2 1 3 3 3 3 3 3 3 4 4 4 5 5 6 5 6 7 7 6 7 6 6 6 5 5 6 6 5 6 7 6 5 5 6 6 6 6 6 7 9 10 10 8 8 7 5 6 5 6 6 7 6 6 6 6 6 5 5 4 3 3 4 4 3 3 4 4 3 3 2 3 1 1 0
0 2 3 3 4 2 3 4 4 5 5 4 6 5 3 4 4 6 6 6 5 6 6 6 6 6 7 7 6 6 6 6 6 7 7 7 7 6 6 6 6 6 5 4 3 4 4 6 6 5 4 5 5 4 4 4 5 5 6 5 6 6 8 8 6 4 4 3 3 2 4 3 3 3 3 3 3 3 2 2 2 2 2 1 1
2 4 4 3 5 3 3 4 4 5 6 6 5 5 6 5 6 7 6 6 6 7 7 7 7 7 7 7 7 7 7 7 8 6 8 8 8 7 7 7 7 6 4 3 1 2 2 4 6 6 5 6 6 5 5 4 5 5 5 5 4 4 5 6 7 8 5 4 4 3 3 2 3 2 2 4 3 2 1 2 2 2 2 1 2
4 5 5 5 6 6 6 5 5 5 5 6 7 7 5 8 7 6 7 7 12 13 8 8 8 6 6 8 7 8 9 9 9 6 10 11 12 13 12 10 7 5 5 5 2 2 5 5 6 6 6 5 6 6 4 3 4 4 4 4 3 3 3 5 6 2 1 2 2 1 2 2 3 2 3 4 4 2 1 1 3 2 3 3 3
6 6 6 6 6 6 6 6 6 6 6 6 6 6 8 9 7 12 13 13 11 11 11 14 15 11 8 8 9 13 15 17 16 14 11 9 10 11 12 12 8 7 7 5 3 4 5 5 6 5 6 5 5 6 4 3 3 2 3 2 2 3 3 3 3 2 2 2 2 1 1 1 2 3 4 4 4 4 2 1 1 2 4 4 4
7 7 7 7 8 7 6 6 7 7 7 6 6 6 7 7 11 11 11 12 14 13 13 14 14 14 13 13 10 9 12 15 16 16 16 14 12 11 10 9 9 9 10 9 4 5 5 6 7 7 6 6 7 5 4 4 3 3 2 2 1 1 3 3 5 5 4 3 1 1 1 2 1 2 3 5 5 4 3 3 2 3 3 3 4
5 6 6 7 7 7 7 7 7 6 6 7 7 6 5 6 7 9 13 9 8 10 12 12 13 14 14 13 13 13 16 18 17 15 14 14 10 9 9 8 7 9 10 5 6 7 5 5 6 7 6 7 7 5 5 3 1 1 1 1 1 1 0 0 1 3 6 7 6 6 8 7 5 5 4 4 5 5 4 3 2 2 2 3 4
5 4 5 6 6 6 6 6 6 6 6 6 6 6 6 6 6 7 7 9 12 11 9 11 13 13 12 12 12 13 14 16 16 16 15 14 14 11 6 7 8 11 11 8 6 7 7 7 6 6 7 7 5 4 3 2 1 0 0 0 1 1 2 1 0 0 2 2 1 4 2 1 4 6 3 1 3 3 3 3 3 3 3 2 4
6 7 9 7 5 6 6 6 6 6 6 6 6 6 6 6 6 6 7 8 8 8 8 10 13 11 8 7 9 12 12 12 12 14 15 15 13 9 5 4 6 5 5 7 6 7 8 7 7 7 7 7 6 4 3 2 2 2 3 2 2 1 1 2 2 1 2 2 2 2 3 4 5 5 4 2 2 2 2 3 4 3 4 4 3
7 6 7 8 7 6 6 6 6 6 6 6 6 6 6 6 6 6 6 6 6 7 7 8 7 11 15 15 15 13 12 12 13 14 13 13 9 7 4 6 6 9 10 9 9 9 7 7 6 6 5 4 3 3 3 3 3 3 3 3 3 3 3 2 2 3 3 2 3 3 4 3 2 1 1 2 2 1 1 2 3 3 2 3 3
6 6 7 7 7 6 6 7 6 7 6 6 6 6 6 6 6 6 6 6 6 6 7 8 7 8 8 8 11 11 12 11 13 11 12 11 7 7 7 8 8 8 8 9 8 6 6 6 5 4 4 4 3 3 3 3 3 3 3 2 2 3 2 2 3 2 3 3 3 2 2 2 1 1 1 0 0 0 1 2 2 2 4 3 3
5 6 6 7 7 7 7 7 8 9 7 7 6 6 6 6 7 7 7 7 8 7 8 8 7 7 8 9 10 8 9 11 12 12 10 2 3 5 7 8 8 8 8 5 2 3 5 4 4 5 5 4 3 2 2 2 2 3 3 3 2 3 4 4 4 3 3 2 2 1 1 1 0 0 0 1 0 0 1 1 2 2 2 2 2
6 7 10 10 6 6 6 7 7 7 8 8 7 8 8 7 7 7 7 6 7 7 7 7 7 8 9 9 9 9 10 9 8 9 9 9 6 5 6 6 8 8 8 8 7 8 7 5 4 5 5 5 4 2 4 3 3 4 3 3 3 3 3 3 3 2 2 2 2 1 1 1 0 1 1 1 1 1 2 2 2 2 2 2 3
8 8 9 13 8 9 8 7 7 7 7 8 7 8 7 7 7 8 8 8 9 9 8 9 8 8 9 9 9 8 9 9 9 9 9 9 9 6 6 8 8 8 9 8 6 4 4 5 7 7 6 5 3 4 4 3 3 4 3 4 4 4 3 3 3 3 3 2 1 0 0 1 1 0 1 2 1 1 1 1 1 2 2 2 2
7 7 7 8 10 8 8 8 8 8 7 7 6 7 8 9 8 8 8 8 7 8 8 8 8 9 9 12 16 14 8 8 8 8 8 8 8 9 7 8 8 7 7 6 5 6 6 7 5 5 6 6 6 3 3 2 3 2 3 2 2 3 3 2 2 2 2 1 1 0 0 0 0 1 2 1 1 2 1 1 1 2 2 2 2
6 7 7 8 9 8 8 9 8 9 8 8 8 8 8 7 8 8 8 8 8 8 8 9 9 10 12 20 18 17 9 7 6 7 7 7 7 8 8 7 6 6 4 4 5 4 5 5 5 4 4 3 2 2 2 1 1 2 2 2 3 3 3 3 3 3 3 1 1 1 1 1 2 2 1 1 1 1 1 2 2 2 2 3 3
8 6 6 7 8 8 8 8 7 8 8 8 8 8 9 9 9 9 8 9 8 8 8 9 9 10 11 16 16 13 7 7 7 8 7 8 8 6 4 3 3 3 5 6 5 5 5 5 4 2 3 3 3 2 2 2 3 2 2 3 2 3 4 3 1 1 1 1 1 1 2 1 2 2 2 1 2 1 2 2 2 3 3 3 3
7 7 7 7 7 8 8 7 7 7 7 8 8 9 9 8 8 9 8 9 10 9 7 8 8 9 10 11 13 12 10 9 9 8 9 8 7 7 6 6 7 7 7 7 7 6 7 5 3 3 3 3 3 2 2 2 2 4 5 4 3 4 3 3 4 4 3 2 2 2 2 2 1 1 2 2 1 2 2 2 3 2 3 3 3
6 6 6 6 7 7 7 7 8 9 8 8 8 8 9 9 9 9 10 9 9 8 8 8 9 9 9 9 9 9 9 10 11 10 9 9 8 8 8 9 9 8 8 8 7 7 7 6 5 5 6 5 5 4 4 3 1 3 4 3 4 4 5 6 6 4 4 3 2 2 2 2 2 2 1 1 2 3 2 2 2 4 3 2 3
5 5 6 5 6 6 6 8 8 9 10 10 9 9 9 8 8 8 8 8 8 9 8 8 7 8 8 8 8 9 9 9 8 8 9 9 9 8 9 10 11 12 11 10 10 9 8 8 8 7 7 7 7 6 4 2 2 3 4 5 5 4 3 3 3 4 5 4 3 3 3 2 3 2 3 2 1 1 3 3 2 2 2 2 3
6 5 5 5 5 5 5 6 7 8 7 8 7 8 7 7 7 7 8 8 8 7 7 7 8 7 7 7 7 7 7 8 7 8 8 9 9 9 10 10 10 10 10 10 9 8 8 7 5 5 6 5 5 6 6 6 5 4 3 3 4 4 3 3 3 4 4 4 3 3 3 2 2 2 3 2 2 2 3 2 3 4 3 2 2
5 5 5 4 5 6 6 6 7 8 6 6 6 6 6 6 7 7 7 7 8 8 8 7 8 7 8 8 8 7 7 7 7 8 8 9 8 8 9 10 9 8 8 9 9 8 7 7 7 6 5 5 5 6 6 6 7 6 5 3 3 3 4 3 3 3 2 3 3 3 3 3 3 3 3 4 3 3 3 3 3 2 3 3 2
5 5 5 5 5 5 5 5 5 6 6 6 6 7 7 7 7 7 7 8 8 9 9 8 8 8 8 9 9 9 9 9 9 9 9 9 9 9 8 9 9 9 9 9 9 9 9 9 9 8 8 8 7 7 7 6 5 5 5 4 7 10 6 4 3 0 1 1 1 2 2 2 3 4 4 4 4 4 2 4 3 3 2 2 2
5 5 4 4 5 5 5 4 5 5 5 5 6 6 6 7 8 8 8 8 8 9 8 9 9 9 9 10 10 10 10 10 10 10 10 9 9 9 10 10 10 10 9 9 9 9 9 9 8 8 7 6 6 5 5 6 6 7 7 7 10 9 7 5 3 2 2 1 3 3 3 3 3 4 4 4 4 4 4 3 3 3 3 4 3
4 4 5 4 5 5 5 5 5 5 6 6 6 6 6 6 6 6 7 7 8 8 8 8 9 9 9 9 9 9 9 9 9 9 9 10 10 9 9 9 9 9 9 9 9 8 7 7 7 7 7 7 7 6 6 6 6 7 9 11 11 10 9 7 5 5 5 3 2 3 4 5 5 4 4 4 4 4 5 5 4 4 4 3 4
Wind_Direction
189 206 204 191 182 201 213 208 221 194 196 203 214 298 96 198 239 234 236 231 217 217 214 210 189 213 234 223 226 227 219 234 232 227 217 222 225 230 210 188 214 237 223 232 204 207 220 231 236 225 191 214 232 230 230 219 210 224 207 200 216 196 191 201 236 261 273 227 255 245 253 230 267 216 242 251 263 254 249 246 249 245 250 249 255
214 204 199 155 156 191 207 198 182 174 170 145 129 157 181 194 234 252 230 259 196 216 186 131 176 183 250 219 220 225 228 228 224 222 240 232 224 201 213 209 221 250 245 268 240 211 209 228 251 234 186 218 216 216 212 200 205 203 211 201 211 208 196 193 223 249 268 278 279 243 242 198 252 198 231 249 246 242 257 255 236 230 243 245 245
180 174 179 168 178 185 188 189 140 165 177 169 194 175 196 198 234 224 210 233 215 207 196 186 173 212 235 242 234 231 223 221 217 212 220 224 248 266 250 216 211 233 241 243 249 228 221 234 252 254 203 226 232 232 210 212 195 210 218 202 223 226 195 209 213 241 258 271 225 274 267 219 225 257 222 242 262 237 254 257 254 247 233 242 247
138 151 149 154 159 167 190 173 168 180 170 182 205 205 210 228 233 238 247 219 222 180 165 186 205 212 220 231 228 231 221 213 223 210 225 218 201 252 266 264 253 250 252 263 265 260 252 255 253 252 246 249 259 252 241 230 220 219 224 205 221 237 178 196 220 238 255 269 257 229 278 292 270 249 253 262 274 274 251 271 263 250 254 239 241
122 124 136 139 170 187 232 233 216 221 211 202 210 218 221 215 217 240 252 233 197 195 230 212 206 209 206 208 222 232 232 201 208 237 234 241 224 207 215 225 236 237 242 249 260 263 262 253 261 264 255 249 256 256 246 241 233 231 247 241 222 232 204 212 222 213 248 263 284 251 232 257 271 292 285 284 271 257 262 245 267 270 261 250 243
112 123 117 147 239 222 218 194 204 219 235 243 246 232 216 207 208 216 195 157 125 106 213 228 219 218 187 206 203 189 120 95 122 169 208 224 232 241 248 239 237 238 241 229 232 236 239 248 258 261 255 246 256 254 242 233 228 237 249 258 215 223 245 234 219 201 221 242 251 283 250 235 273 269 281 217 263 284 284 262 237 243 249 266 247
59 54 46 68 271 276 256 236 209 212 209 223 234 220 218 241 209 239 212 144 106 100 311 262 268 243 230 182 152 142 129 102 67 30 7 299 244 232 225 226 230 235 241 227 217 231 235 229 240 249 255 248 248 246 242 239 239 247 242 248 238 217 234 237 222 200 215 228 251 251 269 260 236 276 268 171 223 234 281 304 296 267 235 235 270
77 74 78 93 93 101 154 165 177 173 170 152 130 81 35 38 56 62 58 54 66 96 75 53 37 39 10 46 87 78 76 73 68 64 288 274 272 250 243 247 246 249 257 253 224 226 238 236 237 230 230 243 244 246 237 252 249 251 246 222 246 228 231 233 225 219 217 223 240 257 247 269 247 236 264 289 284 266 235 244 271 290 294 254 217
104 104 92 74 68 72 74 65 65 68 71 71 67 58 57 54 57 63 63 62 63 66 62 64 78 74 61 58 51 51 55 43 29 10 346 340 334 300 291 280 280 279 264 277 274 275 258 231 225 233 234 244 248 247 251 258 258 262 261 224 224 224 232 228 230 229 231 227 251 239 262 267 256 264 276 256 252 259 267 215 254 260 274 290 283
86 83 76 77 81 91 90 80 73 72 68 70 74 76 73 70 69 64 58 56 55 54 55 53 55 60 62 49 42 45 46 46 10 7 6 351 328 326 321 319 324 330 331 335 335 326 303 290 284 279 271 270 267 272 254 252 251 250 261 249 238 230 232 240 239 227 231 247 253 269 272 271 279 261 257 260 259 263 264 244 257 259 265 276 275
79 81 80 80 79 75 76 71 66 61 59 56 54 58 58 56 54 50 48 49 54 55 59 60 54 53 57 61 56 48 39 18 9 2 352 341 330 316 328 333 353 11 5 355 340 339 335 314 315 316 322 344 11 24 7 18 18 6 346 310 276 265 258 254 254 241 246 252 262 264 263 274 276 275 269 276 270 268 271 267 267 283 277 288 296
61 59 61 64 63 59 57 59 57 55 50 47 45 45 46 50 51 47 48 51 49 50 52 46 40 37 43 48 48 43 44 16 358 356 347 329 316 308 327 340 348 356 351 344 332 331 336 350 2 12 36 24 22 8 1 11 16 3 0 355 348 271 256 254 284 288 267 270 272 266 281 281 297 306 314 326 326 317 298 290 283 284 285 281 277
59 57 51 54 53 52 51 53 52 54 53 51 50 48 49 52 53 53 56 47 45 48 41 47 46 41 45 49 46 41 38 14 356 359 2 15 15 353 347 345 347 21 28 33 27 22 19 16 19 36 23 18 19 5 357 355 1 3 9 11 24 48 54 14 249 245 287 290 286 291 305 329 320 328 356 338 320 307 314 311 312 309 308 301 303
51 46 46 48 50 51 53 51 51 50 52 53 52 52 50 49 47 59 73 65 64 62 53 56 50 44 43 52 57 46 41 11 360 6 8 12 12 15 355 25 53 54 50 42 28 26 24 17 15 20 17 21 14 8 5 5 8 20 31 48 62 52 42 40 43 48 137 244 298 300 27 28 351 328 334 327 324 324 323 314 319 317 315 307 314
47 44 47 44 50 54 61 60 62 54 50 55 61 59 56 59 55 49 59 62 65 65 60 61 55 56 43 47 60 49 35 14 10 10 11 13 16 31 47 56 55 50 47 40 38 36 27 28 33 30 23 23 18 0 357 345 8 44 63 71 75 57 51 42 39 37 41 47 56 57 51 39 26 1 345 336 317 306 297 290 303 313 304 299 38
51 53 52 48 55 58 72 71 68 62 60 57 56 52 50 47 46 31 53 52 52 60 51 54 47 42 32 34 43 36 21 21 19 18 16 14 21 43 43 45 46 47 46 40 35 37 40 35 34 32 28 26 8 355 355 14 40 55 64 69 77 71 68 74 61 54 61 60 59 53 41 31 28 26 14 358 343 328 322 319 11 356 334 24 35
46 54 55 41 52 60 76 74 64 60 56 57 51 47 46 41 38 30 59 47 51 40 36 42 30 38 32 28 33 25 18 15 22 27 32 21 28 38 41 54 50 51 48 41 32 39 43 43 40 34 28 27 5 360 357 20 39 41 41 43 49 48 40 50 75 60 53 60 56 46 30 27 21 19 13 359 3 339 349 44 23 342 18 39 36
34 46 39 20 22 42 62 79 76 67 67 71 76 71 78 77 59 46 84 74 58 39 38 40 23 26 28 16 22 27 0 5 24 25 42 56 63 55 51 68 55 48 48 39 39 42 45 51 52 46 38 24 7 6 3 17 39 28 24 26 26 24 4 352 343 351 7 31 32 28 33 22 20 8 18 0 6 15 43 55 349 351 54 48 64
30 35 19 10 21 35 48 80 93 94 92 99 99 86 87 100 120 97 95 94 100 62 50 50 11 10 15 11 12 27 348 350 13 16 34 65 85 89 86 82 71 49 42 30 23 54 33 48 56 57 59 51 24 24 19 24 43 30 22 24 20 16 347 342 345 344 357 7 10 6 2 14 17 11 3 358 12 39 50 52 22 48 63 53 15
352 6 28 35 32 24 14 23 59 102 127 125 56 160 293 85 85 79 45 94 105 42 49 57 16 300 311 356 338 2 347 338 356 359 15 50 102 113 104 89 80 70 29 54 29 4 42 41 77 100 32 43 71 54 57 36 52 42 33 36 12 351 336 330 333 334 317 328 312 322 318 328 335 340 342 1 24 34 42 43 49 55 64 69 55
6 57 61 53 45 37 38 48 13 355 4 324 233 231 31 30 47 56 30 12 32 1 358 346 350 307 319 317 320 306 275 310 326 1 347 351 37 121 103 113 149 140 165 101 81 29 357 350 309 122 144 233 226 162 136 114 89 100 93 71 267 299 313 304 312 331 314 314 311 318 318 324 319 326 356 0 359 353 359 27 56 70 89 77 62
28 59 46 32 36 42 46 32 53 34 13 18 350 326 13 52 179 212 95 38 333 308 312 321 327 312 309 305 304 294 293 299 290 331 352 332 322 281 127 180 179 149 164 341 334 274 252 246 279 244 221 239 255 251 225 183 177 150 185 210 254 291 279 297 305 314 312 314 321 316 329 337 331 343 349 359 341 334 326 314 278 217 202 180 178
42 55 49 32 8 354 350 34 83 62 34 48 25 316 325 345 339 306 257 278 291 289 289 293 301 299 299 295 288 284 286 289 275 270 263 263 288 304 303 298 216 201 172 213 227 243 236 245 258 290 320 318 312 303 290 298 263 228 201 200 198 225 246 275 307 313 319 321 322 289 348 339 327 321 318 320 334 322 315 295 289 263 230 225 226
62 46 31 18 17 6 346 331 316 169 139 122 64 323 321 335 315 329 255 246 265 282 280 282 289 281 280 285 286 277 270 269 266 240 252 241 250 254 268 280 281 255 264 252 249 239 245 244 246 322 292 277 269 262 258 246 248 265 243 227 201 197 182 215 239 279 302 311 331 338 322 320 305 302 316 316 312 314 304 298 287 275 261 269 247
52 45 23 1 5 346 352 360 329 313 286 181 201 219 265 320 310 305 315 234 239 252 271 284 269 272 282 273 277 281 270 266 264 257 243 251 257 258 257 251 250 240 267 252 259 254 272 296 297 287 275 268 268 268 259 245 234 234 237 234 220 222 205 172 198 200 278 281 285 231 231 259 268 284 300 307 306 304 304 299 296 240 300 256 251
68 4 338 329 327 350 354 342 358 336 308 289 253 235 228 212 221 273 295 261 231 237 276 285 270 271 268 274 278 276 282 278 269 264 259 255 254 250 246 252 252 234 240 264 268 285 289 283 274 273 273 267 254 251 250 245 239 227 221 210 218 218 208 212 149 211 248 246 250 269 265 296 295 297 297 303 311 308 316 311 329 323 19 29 50
120 282 276 292 308 344 358 329 330 338 353 294 264 265 242 211 212 256 245 262 269 267 272 274 282 274 262 269 269 276 278 275 265 262 252 245 243 252 242 247 244 244 253 261 272 276 286 276 271 274 270 267 259 258 264 271 269 254 233 220 226 224 217 207 205 219 227 225 238 236 279 290 298 309 320 321 312 304 299 298 301 288 3 5 9
208 265 283 308 309 307 317 306 314 312 309 326 320 309 266 211 226 239 239 227 233 265 253 262 258 256 269 267 267 272 275 272 264 252 252 233 240 231 234 245 245 241 240 255 267 284 288 295 289 279 274 274 258 254 244 244 246 248 246 235 229 227 228 229 244 243 243 212 255 287 291 300 305 307 313 303 284 292 305 296 291 298 327 308 311
304 301 295 318 309 314 305 303 300 303 308 317 280 246 270 265 235 261 250 217 214 221 243 249 242 245 242 254 260 273 275 268 258 226 228 227 225 235 232 232 233 220 212 190 238 253 255 274 279 282 267 263 268 253 257 260 258 241 248 240 231 225 223 219 223 227 228 224 243 257 281 312 285 274 284 302 279 279 264 290 290 263 295 257 257
317 303 309 316 302 313 315 316 309 308 301 296 308 308 248 230 237 237 270 250 222 233 225 234 238 231 236 246 224 237 252 251 260 231 224 231 234 233 240 240 226 189 148 143 154 267 267 272 263 251 260 247 250 252 241 218 240 252 242 248 237 228 235 237 244 267 97 183 207 211 245 251 278 295 303 286 295 265 164 244 288 282 263 236 241
309 302 306 298 294 301 310 303 302 302 290 288 294 291 305 306 252 233 243 262 257 249 239 247 262 260 230 261 256 229 245 265 273 268 261 250 241 235 233 234 213 187 185 152 198 212 254 262 263 250 243 236 239 240 232 229 236 252 262 219 215 219 213 216 230 211 223 244 238 216 271 291 286 321 306 298 296 299 277 209 226 247 253 257 257
314 310 319 323 329 327 315 307 309 311 304 303 293 298 300 296 304 292 253 244 269 266 259 259 259 257 252 244 256 277 262 252 253 260 259 257 245 227 223 207 183 181 194 189 210 244 215 234 253 252 241 240 237 229 229 227 234 235 285 289 249 159 191 206 186 158 121 77 284 198 168 124 48 328 323 312 309 288 289 287 239 245 251 251 247
339 326 327 324 324 321 320 320 313 308 304 305 304 297 285 288 290 295 312 311 263 260 275 270 261 261 263 265 255 258 276 291 292 286 281 275 258 249 249 240 223 186 146 170 215 238 234 221 232 241 230 244 238 219 221 222 271 346 328 305 348 36 220 68 125 139 143 153 180 183 158 154 155 84 26 352 326 299 310 298 281 249 251 261 256
354 334 329 330 327 323 321 313 308 304 295 285 285 288 285 273 265 281 289 297 314 306 272 252 252 255 256 241 240 248 250 256 270 279 280 275 269 273 288 289 271 208 194 216 204 227 227 224 226 224 224 231 253 244 238 230 222 266 324 329 179 144 115 88 295 20 53 107 102 298 320 115 116 112 107 48 283 296 309 312 321 324 299 264 275
16 5 360 357 345 330 320 318 315 308 309 303 299 291 285 276 269 268 257 273 277 270 283 299 299 288 274 269 261 260 261 266 264 265 267 265 260 246 201 240 256 235 238 245 223 221 218 217 223 224 205 206 212 203 214 222 202 195 192 178 162 123 99 95 104 135 118 104 78 49 46 57 57 78 119 124 253 267 334 337 328 327 328 328 313
9 6 358 357 353 345 334 328 321 315 314 308 304 298 291 292 290 278 278 273 266 273 287 280 274 298 301 295 281 271 268 263 259 261 267 267 264 182 212 242 241 245 238 232 221 226 222 225 220 226 191 181 178 213 210 211 195 186 183 167 143 141 136 135 126 109 97 85 72 72 64 57 62 84 125 202 214 184 309 310 304 320 331 334 328
358 356 354 349 343 334 331 327 328 327 320 314 310 311 309 304 289 285 284 283 283 283 280 284 297 299 291 283 283 278 269 272 288 289 276 277 251 188 225 229 238 245 252 247 240 230 224 233 223 219 181 169 189 219 206 198 186 147 117 118 126 124 119 119 103 100 97 90 86 78 82 83 97 147 203 192 83 3 352 341 331 329 331 342 327
348 345 343 341 334 334 335 334 330 329 331 328 326 323 321 318 316 312 311 307 306 306 304 307 304 296 297 293 300 300 306 305 308 310 302 295 135 203 227 243 243 240 239 250 247 272 258 244 204 195 177 155 188 200 202 209 152 124 121 113 95 96 101 95 86 88 91 101 112 124 125 126 132 190 195 139 102 345 358 347 329 336 341 357 9
347 343 346 347 338 336 329 331 333 339 337 338 339 339 335 330 326 324 319 315 314 309 309 308 307 306 301 306 312 317 324 311 309 298 299 295 264 218 234 240 243 241 237 228 212 208 210 196 184 163 135 139 168 183 210 196 152 142 138 129 116 120 118 118 120 124 129 136 145 148 149 132 101 27 29 35 31 7 5 3 6 360 6 15 20
348 351 346 349 352 348 344 342 341 341 343 340 338 338 333 336 334 334 332 334 331 330 327 323 318 314 316 322 323 326 315 304 294 291 291 293 293 275 230 249 249 237 238 236 218 200 201 179 165 147 152 167 146 201 219 201 167 128 133 137 145 152 154 156 155 154 154 150 123 113 73 61 33 86 66 47 35 15 24 35 28 20 33 29 25
350 348 350 352 351 348 351 352 353 349 342 342 334 339 343 340 339 342 343 338 335 336 333 332 328 323 326 322 318 318 301 288 294 297 294 296 297 294 279 261 256 251 238 224 198 192 184 160 158 148 155 162 168 195 186 171 127 129 110 126 121 127 148 161 161 149 149 156 156 146 145 59 37 51 56 37 47 76 64 63 64 60 55 45 37
359 1 1 358 358 2 1 3 355 352 356 356 2 0 355 353 355 357 352 350 353 348 346 347 343 339 332 335 335 332 326 304 300 296 299 296 292 292 297 294 276 274 277 233 195 170 130 122 123 115 92 87 107 167 114 92 97 117 152 140 139 149 177 184 183 181 178 172 175 167 128 106 89 78 71 63 68 70 71 59 56 60 54 53 47
16 14 10 12 14 13 14 5 5 9 8 10 9 11 12 17 18 9 12 14 9 6 6 1 354 351 350 349 345 344 344 339 329 321 315 311 305 313 330 335 353 38 38 27 19 48 81 86 87 90 128 159 158 140 135 172 140 168 181 176 177 187 197 185 176 193 198 186 175 167 160 144 138 136 139 135 115 91 81 73 67 56 58 56 57
30 27 26 24 22 24 20 15 14 14 15 10 14 20 16 17 15 17 12 11 10 12 7 5 1 359 356 360 7 13 13 5 3 0 354 351 356 3 1 7 23 42 47 50 39 42 53 52 65 56 41 26 27 38 22 1 247 210 189 186 198 205 206 192 194 195 190 189 180 176 172 170 164 151 153 154 143 112 105 95 82 72 63 65 59
36 32 25 23 24 19 15 15 16 16 12 14 17 19 19 20 17 16 16 15 11 7 7 6 3 7 8 9 9 10 11 16 18 16 13 12 17 19 19 32 38 47 52 50 50 51 47 41 39 35 24 17 16 12 356 359 55 301 315 274 209 206 210 207 205 195 184 181 175 175 175 179 180 178 164 154 151 126 120 118 118 109 90 70 68
33 27 29 30 25 22 20 20 14 21 22 22 20 20 16 15 17 16 15 14 13 12 9 3 4 9 10 8 8 12 10 13 15 14 17 18 21 22 23 27 32 33 31 28 27 28 24 22 18 16 12 343 328 325 328 300 266 252 241 251 251 246 237 208 165 173 186 188 178 183 178 179 186 181 174 156 148 140 128 129 124 105 108 110 94
31 27 27 27 30 29 27 20 19 17 14 17 19 19 10 9 7 6 12 11 9 9 7 6 8 5 3 8 6 6 4 10 9 11 16 16 16 19 26 28 29 28 23 19 15 15 13 12 10 10 352 345 348 340 333 325 316 298 295 288 286 276 244 202 187 189 187 188 182 178 181 182 171 166 164 162 140 139 144 145 150 146 146 140 143
33 35 29 24 29 32 25 23 22 18 15 13 9 6 5 4 5 7 2 2 6 6 6 7 10 4 4 4 2 5 6 6 13 18 15 16 15 16 20 25 24 20 17 16 10 4 1 356 351 352 351 348 342 330 314 310 306 304 278 276 245 260 234 206 201 195 188 175 183 192 181 179 172 169 164 172 167 159 156 162 165 164 161 157 158
36 35 35 27 30 26 23 21 18 15 14 6 4 11 8 9 11 9 10 9 10 10 9 4 2 2 3 4 3 5 6 12 14 16 18 18 19 20 18 20 23 24 29 26 19 16 14 13 13 13 12 8 3 351 344 333 326 322 333 347 354 349 344 332 320 14 89 150 164 175 190 198 184 176 172 180 181 180 173 166 172 170 169 169 163
38 34 39 33 26 20 17 22 26 25 21 15 19 18 16 20 21 17 14 14 16 15 12 9 12 11 8 7 7 6 6 8 8 8 9 10 12 13 17 19 19 20 21 21 18 15 16 15 16 15 13 11 6 4 358 2 4 2 1 352 352 354 349 344 359 99 162 187 185 192 197 205 196 185 184 188 181 180 182 179 180 179 178 175 183
36 39 41 40 30 22 23 28 32 31 25 24 25 24 22 22 19 14 14 17 16 12 12 11 12 12 14 13 13 14 14 12 11 11 12 10 10 11 15 19 18 16 20 20 18 15 10 9 8 9 7 6 4 6 8 8 11 4 3 10 14 11 9 3 348 333 310 276 211 193 196 202 195 188 191 193 188 192 193 189 182 186 191 188 185